User: anonymous   Login
Location: Vancouver
(49.2500°N, 123.1330°W)
Time: 07:03:51
(UTC-08:00)
Language:

Iridium 21 - Orbit

View from above orbital plane
View from above orbital plane
View from above satellite
View from above satellite

Ground track
Ground track

The orbit data is extracted from the following two-line orbital elements,

1 25778U 99032B   14353.24982115  .00000754  00000-0  26200-3 0   282
2 25778 086.3971 244.7031 0002033 107.9858 041.9723 14.34226300817548
Epoch (UTC): 19 December 2014 05:59:44
Eccentricity: 0.0002033
inclination: 86.3971°
perigee height: 776 km
apogee height: 779 km
right ascension of ascending node: 244.7031°
argument of perigee: 107.9858°
revolutions per day: 14.34226300
mean anomaly at epoch: 41.9723°
orbit number at epoch: 81754

The dashed part of the orbit path shows where the satellite is in the earth's shadow,  

DLR